Year,Month,Day,Hour,Minute,Value (Times are PST for temperature in C)
2018,08,10,00,00,21.70
2018,08,10,00,01,21.60
2018,08,10,00,02,21.60
2018,08,10,00,03,21.50
2018,08,10,00,04,21.40
2018,08,10,00,05,21.30
2018,08,10,00,06,21.30
2018,08,10,00,07,21.20
2018,08,10,00,08,21.20
2018,08,10,00,09,21.20
2018,08,10,00,10,21.10
2018,08,10,00,11,21.10
2018,08,10,00,12,21.00
2018,08,10,00,13,21.00
2018,08,10,00,14,20.90
2018,08,10,00,15,20.90
2018,08,10,00,16,20.90
2018,08,10,00,17,20.90
2018,08,10,00,18,20.90
2018,08,10,00,19,20.90
2018,08,10,00,20,20.90
2018,08,10,00,21,20.90
2018,08,10,00,22,20.90
2018,08,10,00,23,20.90
2018,08,10,00,24,20.80
2018,08,10,00,25,20.80
2018,08,10,00,26,20.80
2018,08,10,00,27,20.80
2018,08,10,00,28,20.70
2018,08,10,00,29,20.70
2018,08,10,00,30,20.70
2018,08,10,00,31,20.60
2018,08,10,00,32,20.60
2018,08,10,00,33,20.50
2018,08,10,00,34,20.40
2018,08,10,00,35,20.40
2018,08,10,00,36,20.40
2018,08,10,00,37,20.30
2018,08,10,00,38,20.30
2018,08,10,00,39,20.40
2018,08,10,00,40,20.30
2018,08,10,00,41,20.30
2018,08,10,00,42,20.30
2018,08,10,00,43,20.30
2018,08,10,00,44,20.30
2018,08,10,00,45,20.20
2018,08,10,00,46,20.20
2018,08,10,00,47,20.10
2018,08,10,00,48,20.10
2018,08,10,00,49,20.00
2018,08,10,00,50,20.00
2018,08,10,00,51,19.90
2018,08,10,00,52,19.90
2018,08,10,00,53,19.90
2018,08,10,00,54,19.90
2018,08,10,00,55,19.90
2018,08,10,00,56,19.90
2018,08,10,00,57,19.90
2018,08,10,00,58,20.00
2018,08,10,00,59,20.00
2018,08,10,01,00,20.00
2018,08,10,01,01,20.00
2018,08,10,01,02,20.00
2018,08,10,01,03,20.00
2018,08,10,01,04,20.00
2018,08,10,01,05,20.00
2018,08,10,01,06,19.90
2018,08,10,01,07,19.90
2018,08,10,01,08,19.90
2018,08,10,01,09,19.90
2018,08,10,01,10,19.90
2018,08,10,01,11,19.80
2018,08,10,01,12,19.80
2018,08,10,01,13,19.80
2018,08,10,01,14,19.80
2018,08,10,01,15,19.80
2018,08,10,01,16,19.80
2018,08,10,01,17,19.80
2018,08,10,01,18,19.80
2018,08,10,01,19,19.70
2018,08,10,01,20,19.70
2018,08,10,01,21,19.70
2018,08,10,01,22,19.70
2018,08,10,01,23,19.60
2018,08,10,01,24,19.60
2018,08,10,01,25,19.60
2018,08,10,01,26,19.60
2018,08,10,01,27,19.60
2018,08,10,01,28,19.60
2018,08,10,01,29,19.60
2018,08,10,01,30,19.60
2018,08,10,01,31,19.60
2018,08,10,01,32,19.60
2018,08,10,01,33,19.60
2018,08,10,01,34,19.60
2018,08,10,01,35,19.60
2018,08,10,01,36,19.60
2018,08,10,01,37,19.60
2018,08,10,01,38,19.60
2018,08,10,01,39,19.60
2018,08,10,01,40,19.60
2018,08,10,01,41,19.60
2018,08,10,01,42,19.60
2018,08,10,01,43,19.60
2018,08,10,01,44,19.60
2018,08,10,01,45,19.60
2018,08,10,01,46,19.60
2018,08,10,01,47,19.60
2018,08,10,01,48,19.60
2018,08,10,01,49,19.50
2018,08,10,01,50,19.50
2018,08,10,01,51,19.50
2018,08,10,01,52,19.50
2018,08,10,01,53,19.50
2018,08,10,01,54,19.50
2018,08,10,01,55,19.40
2018,08,10,01,56,19.40
2018,08,10,01,57,19.40
2018,08,10,01,58,19.30
2018,08,10,01,59,19.30
2018,08,10,02,00,19.30
2018,08,10,02,01,19.30
2018,08,10,02,02,19.30
2018,08,10,02,03,19.30
2018,08,10,02,04,19.20
2018,08,10,02,05,19.20
2018,08,10,02,06,19.20
2018,08,10,02,07,19.20
2018,08,10,02,08,19.20
2018,08,10,02,09,19.10
2018,08,10,02,10,19.10
2018,08,10,02,11,19.10
2018,08,10,02,12,19.10
2018,08,10,02,13,19.10
2018,08,10,02,14,19.10
2018,08,10,02,15,19.10
2018,08,10,02,16,19.10
2018,08,10,02,17,19.10
2018,08,10,02,18,19.10
2018,08,10,02,19,19.00
2018,08,10,02,20,19.00
2018,08,10,02,21,19.00
2018,08,10,02,22,19.00
2018,08,10,02,23,19.00
2018,08,10,02,24,19.00
2018,08,10,02,25,19.00
2018,08,10,02,26,19.00
2018,08,10,02,27,19.00
2018,08,10,02,28,19.00
2018,08,10,02,29,19.00
2018,08,10,02,30,18.90
2018,08,10,02,31,18.90
2018,08,10,02,32,18.90
2018,08,10,02,33,18.90
2018,08,10,02,34,18.90
2018,08,10,02,35,18.80
2018,08,10,02,36,18.80
2018,08,10,02,37,18.80
2018,08,10,02,38,18.80
2018,08,10,02,39,18.80
2018,08,10,02,40,18.80
2018,08,10,02,41,18.80
2018,08,10,02,42,18.80
2018,08,10,02,43,18.80
2018,08,10,02,44,18.70
2018,08,10,02,45,18.70
2018,08,10,02,46,18.70
2018,08,10,02,47,18.70
2018,08,10,02,48,18.70
2018,08,10,02,49,18.70
2018,08,10,02,50,18.70
2018,08,10,02,51,18.70
2018,08,10,02,52,18.70
2018,08,10,02,53,18.60
2018,08,10,02,54,18.60
2018,08,10,02,55,18.60
2018,08,10,02,56,18.60
2018,08,10,02,57,18.60
2018,08,10,02,58,18.60
2018,08,10,02,59,18.60
2018,08,10,03,00,18.60
2018,08,10,03,01,18.60
2018,08,10,03,02,18.60
2018,08,10,03,03,18.60
2018,08,10,03,04,18.60
2018,08,10,03,05,18.50
2018,08,10,03,06,18.50
2018,08,10,03,07,18.50
2018,08,10,03,08,18.50
2018,08,10,03,09,18.50
2018,08,10,03,10,18.40
2018,08,10,03,11,18.40
2018,08,10,03,12,18.40
2018,08,10,03,13,18.40
2018,08,10,03,14,18.30
2018,08,10,03,15,18.30
2018,08,10,03,16,18.30
2018,08,10,03,17,18.30
2018,08,10,03,18,18.30
2018,08,10,03,19,18.30
2018,08,10,03,20,18.30
2018,08,10,03,21,18.20
2018,08,10,03,22,18.20
2018,08,10,03,23,18.10
2018,08,10,03,24,18.10
2018,08,10,03,25,18.10
2018,08,10,03,26,18.00
2018,08,10,03,27,18.00
2018,08,10,03,28,18.00
2018,08,10,03,29,18.00
2018,08,10,03,30,17.90
2018,08,10,03,31,17.90
2018,08,10,03,32,17.90
2018,08,10,03,33,17.90
2018,08,10,03,34,17.90
2018,08,10,03,35,17.90
2018,08,10,03,36,17.90
2018,08,10,03,37,17.90
2018,08,10,03,38,17.90
2018,08,10,03,39,17.90
2018,08,10,03,40,17.90
2018,08,10,03,41,17.90
2018,08,10,03,42,17.90
2018,08,10,03,43,17.80
2018,08,10,03,44,17.80
2018,08,10,03,45,17.80
2018,08,10,03,46,17.80
2018,08,10,03,47,17.80
2018,08,10,03,48,17.70
2018,08,10,03,49,17.60
2018,08,10,03,50,17.60
2018,08,10,03,51,17.60
2018,08,10,03,52,17.60
2018,08,10,03,53,17.50
2018,08,10,03,54,17.50
2018,08,10,03,55,17.50
2018,08,10,03,56,17.40
2018,08,10,03,57,17.40
2018,08,10,03,58,17.40
2018,08,10,03,59,17.40
2018,08,10,04,00,17.40
2018,08,10,04,01,17.40
2018,08,10,04,02,17.40
2018,08,10,04,03,17.40
2018,08,10,04,04,17.50
2018,08,10,04,05,17.50
2018,08,10,04,06,17.50
2018,08,10,04,07,17.50
2018,08,10,04,08,17.60
2018,08,10,04,09,17.60
2018,08,10,04,10,17.60
2018,08,10,04,11,17.60
2018,08,10,04,12,17.60
2018,08,10,04,13,17.70
2018,08,10,04,14,17.70
2018,08,10,04,15,17.70
2018,08,10,04,16,17.70
2018,08,10,04,17,17.70
2018,08,10,04,18,17.70
2018,08,10,04,19,17.70
2018,08,10,04,20,17.70
2018,08,10,04,21,17.70
2018,08,10,04,22,17.70
2018,08,10,04,23,17.70
2018,08,10,04,24,17.70
2018,08,10,04,25,17.70
2018,08,10,04,26,17.70
2018,08,10,04,27,17.70
2018,08,10,04,28,17.70
2018,08,10,04,29,17.70
2018,08,10,04,30,17.70
2018,08,10,04,31,17.70
2018,08,10,04,32,17.70
2018,08,10,04,33,17.70
2018,08,10,04,34,17.70
2018,08,10,04,35,17.60
2018,08,10,04,36,17.60
2018,08,10,04,37,17.60
2018,08,10,04,38,17.60
2018,08,10,04,39,17.60
2018,08,10,04,40,17.60
2018,08,10,04,41,17.60
2018,08,10,04,42,17.60
2018,08,10,04,43,17.60
2018,08,10,04,44,17.60
2018,08,10,04,45,17.60
2018,08,10,04,46,17.60
2018,08,10,04,47,17.60
2018,08,10,04,48,17.60
2018,08,10,04,49,17.60
2018,08,10,04,50,17.60
2018,08,10,04,51,17.60
2018,08,10,04,52,17.60
2018,08,10,04,53,17.60
2018,08,10,04,54,17.60
2018,08,10,04,55,17.60
2018,08,10,04,56,17.60
2018,08,10,04,57,17.60
2018,08,10,04,58,17.60
2018,08,10,04,59,17.60
2018,08,10,05,00,17.60
2018,08,10,05,01,17.60
2018,08,10,05,02,17.60
2018,08,10,05,03,17.50
2018,08,10,05,04,17.50
2018,08,10,05,05,17.50
2018,08,10,05,06,17.50
2018,08,10,05,07,17.50
2018,08,10,05,08,17.50
2018,08,10,05,09,17.50
2018,08,10,05,10,17.50
2018,08,10,05,11,17.50
2018,08,10,05,12,17.40
2018,08,10,05,13,17.40
2018,08,10,05,14,17.40
2018,08,10,05,15,17.40
2018,08,10,05,16,17.40
2018,08,10,05,17,17.40
2018,08,10,05,18,17.40
2018,08,10,05,19,17.40
2018,08,10,05,20,17.40
2018,08,10,05,21,17.40
2018,08,10,05,22,17.40
2018,08,10,05,23,17.40
2018,08,10,05,24,17.40
2018,08,10,05,25,17.40
2018,08,10,05,26,17.40
2018,08,10,05,27,17.40
2018,08,10,05,28,17.40
2018,08,10,05,29,17.40
2018,08,10,05,30,17.40
2018,08,10,05,31,17.30
2018,08,10,05,32,17.30
2018,08,10,05,33,17.20
2018,08,10,05,34,17.20
2018,08,10,05,35,17.20
2018,08,10,05,36,17.20
2018,08,10,05,37,17.20
2018,08,10,05,38,17.20
2018,08,10,05,39,17.20
2018,08,10,05,40,17.30
2018,08,10,05,41,17.30
2018,08,10,05,42,17.30
2018,08,10,05,43,17.30
2018,08,10,05,44,17.30
2018,08,10,05,45,17.40
2018,08,10,05,46,17.40
2018,08,10,05,47,17.40
2018,08,10,05,48,17.50
2018,08,10,05,49,17.50
2018,08,10,05,50,17.50
2018,08,10,05,51,17.50
2018,08,10,05,52,17.50
2018,08,10,05,53,17.50
2018,08,10,05,54,17.50
2018,08,10,05,55,17.50
2018,08,10,05,56,17.50
2018,08,10,05,57,17.60
2018,08,10,05,58,17.60
2018,08,10,05,59,17.60
2018,08,10,06,00,17.70
2018,08,10,06,01,17.70
2018,08,10,06,02,17.70
2018,08,10,06,03,17.80
2018,08,10,06,04,17.80
2018,08,10,06,05,17.80
2018,08,10,06,06,17.80
2018,08,10,06,07,17.80
2018,08,10,06,08,17.80
2018,08,10,06,09,17.80
2018,08,10,06,10,17.70
2018,08,10,06,11,17.70
2018,08,10,06,12,17.70
2018,08,10,06,13,17.70
2018,08,10,06,14,17.70
2018,08,10,06,15,17.60
2018,08,10,06,16,17.60
2018,08,10,06,17,17.60
2018,08,10,06,18,17.60
2018,08,10,06,19,17.60
2018,08,10,06,20,17.60
2018,08,10,06,21,17.60
2018,08,10,06,22,17.60
2018,08,10,06,23,17.60
2018,08,10,06,24,17.60
2018,08,10,06,25,17.50
2018,08,10,06,26,17.50
2018,08,10,06,27,17.50
2018,08,10,06,28,17.40
2018,08,10,06,29,17.40
2018,08,10,06,30,17.40
2018,08,10,06,31,17.40
2018,08,10,06,32,17.40
2018,08,10,06,33,17.40
2018,08,10,06,34,17.30
2018,08,10,06,35,17.30
2018,08,10,06,36,17.30
2018,08,10,06,37,17.30
2018,08,10,06,38,17.30
2018,08,10,06,39,17.30
2018,08,10,06,40,17.30
2018,08,10,06,41,17.30
2018,08,10,06,42,17.30
2018,08,10,06,43,17.30
2018,08,10,06,44,17.30
2018,08,10,06,45,17.30
2018,08,10,06,46,17.30
2018,08,10,06,47,17.30
2018,08,10,06,48,17.30
2018,08,10,06,49,17.30
2018,08,10,06,50,17.30
2018,08,10,06,51,17.30
2018,08,10,06,52,17.30
2018,08,10,06,53,17.30
2018,08,10,06,54,17.30
2018,08,10,06,55,17.40
2018,08,10,06,56,17.40
2018,08,10,06,57,17.40
2018,08,10,06,58,17.40
2018,08,10,06,59,17.40
2018,08,10,07,00,17.50
2018,08,10,07,01,17.50
2018,08,10,07,02,17.50
2018,08,10,07,03,17.60
2018,08,10,07,04,17.60
2018,08,10,07,05,17.60
2018,08,10,07,06,17.70
2018,08,10,07,07,17.70
2018,08,10,07,08,17.70
2018,08,10,07,09,17.70
2018,08,10,07,10,17.80
2018,08,10,07,11,17.80
2018,08,10,07,12,17.80
2018,08,10,07,13,17.80
2018,08,10,07,14,17.80
2018,08,10,07,15,17.80
2018,08,10,07,16,17.80
2018,08,10,07,17,17.90
2018,08,10,07,18,17.90
2018,08,10,07,19,17.90
2018,08,10,07,20,17.90
2018,08,10,07,21,18.00
2018,08,10,07,22,18.00
2018,08,10,07,23,18.10
2018,08,10,07,24,18.10
2018,08,10,07,25,18.10
2018,08,10,07,26,18.10
2018,08,10,07,27,18.20
2018,08,10,07,28,18.20
2018,08,10,07,29,18.20
2018,08,10,07,30,18.20
2018,08,10,07,31,18.30
2018,08,10,07,32,18.30
2018,08,10,07,33,18.30
2018,08,10,07,34,18.40
2018,08,10,07,35,18.40
2018,08,10,07,36,18.50
2018,08,10,07,37,18.50
2018,08,10,07,38,18.50
2018,08,10,07,39,18.60
2018,08,10,07,40,18.60
2018,08,10,07,41,18.60
2018,08,10,07,42,18.70
2018,08,10,07,43,18.70
2018,08,10,07,44,18.70
2018,08,10,07,45,18.80
2018,08,10,07,46,18.80
2018,08,10,07,47,18.80
2018,08,10,07,48,18.90
2018,08,10,07,49,18.90
2018,08,10,07,50,19.00
2018,08,10,07,51,19.00
2018,08,10,07,52,19.10
2018,08,10,07,53,19.10
2018,08,10,07,54,19.20
2018,08,10,07,55,19.20
2018,08,10,07,56,19.30
2018,08,10,07,57,19.30
2018,08,10,07,58,19.40
2018,08,10,07,59,19.50
2018,08,10,08,00,19.60
2018,08,10,08,01,19.80
2018,08,10,08,02,20.00
2018,08,10,08,03,20.10
2018,08,10,08,04,20.30
2018,08,10,08,05,20.40
2018,08,10,08,06,20.50
2018,08,10,08,07,20.60
2018,08,10,08,08,20.60
2018,08,10,08,09,20.70
2018,08,10,08,10,20.70
2018,08,10,08,11,20.80
2018,08,10,08,12,20.80
2018,08,10,08,13,20.90
2018,08,10,08,14,20.90
2018,08,10,08,15,21.00
2018,08,10,08,16,21.10
2018,08,10,08,17,21.20
2018,08,10,08,18,21.30
2018,08,10,08,19,21.40
2018,08,10,08,20,21.40
2018,08,10,08,21,21.50
2018,08,10,08,22,21.60
2018,08,10,08,23,21.60
2018,08,10,08,24,21.60
2018,08,10,08,25,21.70
2018,08,10,08,26,21.70
2018,08,10,08,27,21.70
2018,08,10,08,28,21.80
2018,08,10,08,29,21.80
2018,08,10,08,30,21.80
2018,08,10,08,31,21.80
2018,08,10,08,32,21.80
2018,08,10,08,33,21.80
2018,08,10,08,34,21.70
2018,08,10,08,35,21.70
2018,08,10,08,36,21.70
2018,08,10,08,37,21.70
2018,08,10,08,38,21.70
2018,08,10,08,39,21.70
2018,08,10,08,40,21.80
2018,08,10,08,41,21.80
2018,08,10,08,42,21.90
2018,08,10,08,43,21.90
2018,08,10,08,44,22.00
2018,08,10,08,45,21.90
2018,08,10,08,46,22.00
2018,08,10,08,47,22.10
2018,08,10,08,48,22.10
2018,08,10,08,49,22.00
2018,08,10,08,50,22.00
2018,08,10,08,51,21.90
2018,08,10,08,52,21.90
2018,08,10,08,53,21.90
2018,08,10,08,54,21.80
2018,08,10,08,55,21.80
2018,08,10,08,56,21.80
2018,08,10,08,57,21.80
2018,08,10,08,58,21.80
2018,08,10,08,59,21.80
2018,08,10,09,00,21.80
2018,08,10,09,01,21.90
2018,08,10,09,02,21.90
2018,08,10,09,03,22.00
2018,08,10,09,04,22.10
2018,08,10,09,05,22.10
2018,08,10,09,06,22.10
2018,08,10,09,07,22.10
2018,08,10,09,08,22.10
2018,08,10,09,09,22.10
2018,08,10,09,10,22.20
2018,08,10,09,11,22.20
2018,08,10,09,12,22.20
2018,08,10,09,13,22.20
2018,08,10,09,14,22.30
2018,08,10,09,15,22.30
2018,08,10,09,16,22.30
2018,08,10,09,17,22.40
2018,08,10,09,18,22.40
2018,08,10,09,19,22.40
2018,08,10,09,20,22.40
2018,08,10,09,21,22.30
2018,08,10,09,22,22.40
2018,08,10,09,23,22.40
2018,08,10,09,24,22.40
2018,08,10,09,25,22.30
2018,08,10,09,26,22.30
2018,08,10,09,27,22.10
2018,08,10,09,28,22.10
2018,08,10,09,29,22.00
2018,08,10,09,30,22.00
2018,08,10,09,31,21.90
2018,08,10,09,32,22.00
2018,08,10,09,33,22.00
2018,08,10,09,34,22.10
2018,08,10,09,35,22.20
2018,08,10,09,36,22.30
2018,08,10,09,37,22.30
2018,08,10,09,38,22.30
2018,08,10,09,39,22.30
2018,08,10,09,40,22.30
2018,08,10,09,41,22.40
2018,08,10,09,42,22.50
2018,08,10,09,43,22.60
2018,08,10,09,44,22.60
2018,08,10,09,45,22.60
2018,08,10,09,46,22.70
2018,08,10,09,47,22.70
2018,08,10,09,48,22.80
2018,08,10,09,49,22.80
2018,08,10,09,50,22.90
2018,08,10,09,51,23.10
2018,08,10,09,52,23.10
2018,08,10,09,53,23.10
2018,08,10,09,54,23.00
2018,08,10,09,55,22.90
2018,08,10,09,56,22.80
2018,08,10,09,57,22.80
2018,08,10,09,58,22.80
2018,08,10,09,59,22.90
2018,08,10,10,00,23.00
2018,08,10,10,01,23.10
2018,08,10,10,02,23.20
2018,08,10,10,03,23.20
2018,08,10,10,04,23.20
2018,08,10,10,05,23.20
2018,08,10,10,06,23.20
2018,08,10,10,07,23.10
2018,08,10,10,08,23.10
2018,08,10,10,09,23.20
2018,08,10,10,10,23.30
2018,08,10,10,11,23.30
2018,08,10,10,12,23.30
2018,08,10,10,13,23.30
2018,08,10,10,14,23.20
2018,08,10,10,15,23.00
2018,08,10,10,16,22.90
2018,08,10,10,17,23.00
2018,08,10,10,18,23.00
2018,08,10,10,19,23.00
2018,08,10,10,20,23.10
2018,08,10,10,21,23.30
2018,08,10,10,22,23.20
2018,08,10,10,23,23.10
2018,08,10,10,24,23.00
2018,08,10,10,25,22.90
2018,08,10,10,26,22.90
2018,08,10,10,27,22.90
2018,08,10,10,28,23.00
2018,08,10,10,29,23.20
2018,08,10,10,30,23.30
2018,08,10,10,31,23.50
2018,08,10,10,32,23.70
2018,08,10,10,33,23.90
2018,08,10,10,34,23.90
2018,08,10,10,35,23.90
2018,08,10,10,36,23.90
2018,08,10,10,37,23.80
2018,08,10,10,38,23.80
2018,08,10,10,39,23.80
2018,08,10,10,40,23.80
2018,08,10,10,41,23.80
2018,08,10,10,42,23.80
2018,08,10,10,43,23.90
2018,08,10,10,44,23.90
2018,08,10,10,45,23.80
2018,08,10,10,46,23.70
2018,08,10,10,47,23.80
2018,08,10,10,48,23.90
2018,08,10,10,49,24.00
2018,08,10,10,50,24.10
2018,08,10,10,51,24.20
2018,08,10,10,52,24.30
2018,08,10,10,53,24.20
2018,08,10,10,54,24.00
2018,08,10,10,55,23.70
2018,08,10,10,56,23.50
2018,08,10,10,57,23.40
2018,08,10,10,58,23.40
2018,08,10,10,59,23.40
2018,08,10,11,00,23.30
2018,08,10,11,01,23.20
2018,08,10,11,02,23.10
2018,08,10,11,03,22.90
2018,08,10,11,04,22.80
2018,08,10,11,05,22.80
2018,08,10,11,06,22.80
2018,08,10,11,07,22.80
2018,08,10,11,08,22.80
2018,08,10,11,09,22.80
2018,08,10,11,10,22.90
2018,08,10,11,11,23.00
2018,08,10,11,12,23.20
2018,08,10,11,13,23.40
2018,08,10,11,14,23.50
2018,08,10,11,15,23.70
2018,08,10,11,16,23.70
2018,08,10,11,17,23.70
2018,08,10,11,18,23.60
2018,08,10,11,19,23.60
2018,08,10,11,20,23.60
2018,08,10,11,21,23.60
2018,08,10,11,22,23.70
2018,08,10,11,23,23.80
2018,08,10,11,24,23.90
2018,08,10,11,25,23.80
2018,08,10,11,26,24.00
2018,08,10,11,27,24.00
2018,08,10,11,28,24.10
2018,08,10,11,29,24.20
2018,08,10,11,30,24.20
2018,08,10,11,31,24.20
2018,08,10,11,32,23.90
2018,08,10,11,33,23.70
2018,08,10,11,34,23.40
2018,08,10,11,35,23.20
2018,08,10,11,36,23.00
2018,08,10,11,37,22.80
2018,08,10,11,38,22.70
2018,08,10,11,39,22.60
2018,08,10,11,40,22.50
2018,08,10,11,41,22.50
2018,08,10,11,42,22.60
2018,08,10,11,43,22.70
2018,08,10,11,44,22.70
2018,08,10,11,45,22.70
2018,08,10,11,46,22.60
2018,08,10,11,47,22.60
2018,08,10,11,48,22.60
2018,08,10,11,49,22.70
2018,08,10,11,50,23.00
2018,08,10,11,51,23.20
2018,08,10,11,52,23.30
2018,08,10,11,53,23.30
2018,08,10,11,54,23.30
2018,08,10,11,55,23.40
2018,08,10,11,56,23.50
2018,08,10,11,57,23.60
2018,08,10,11,58,23.60
2018,08,10,11,59,23.60
2018,08,10,12,00,23.60
2018,08,10,12,01,23.70
2018,08,10,12,02,23.80
2018,08,10,12,03,23.80
2018,08,10,12,04,23.70
2018,08,10,12,05,23.80
2018,08,10,12,06,24.00
2018,08,10,12,07,24.10
2018,08,10,12,08,24.30
2018,08,10,12,09,24.60
2018,08,10,12,10,24.80
2018,08,10,12,11,24.90
2018,08,10,12,12,24.80
2018,08,10,12,13,24.50
2018,08,10,12,14,24.30
2018,08,10,12,15,24.10
2018,08,10,12,16,24.10
2018,08,10,12,17,24.10
2018,08,10,12,18,24.10
2018,08,10,12,19,24.20
2018,08,10,12,20,24.20
2018,08,10,12,21,24.20
2018,08,10,12,22,24.20
2018,08,10,12,23,24.00
2018,08,10,12,24,24.00
2018,08,10,12,25,24.00
2018,08,10,12,26,24.10
2018,08,10,12,27,24.10
2018,08,10,12,28,24.20
2018,08,10,12,29,24.20
2018,08,10,12,30,24.20
2018,08,10,12,31,24.20
2018,08,10,12,32,24.30
2018,08,10,12,33,24.30
2018,08,10,12,34,24.30
2018,08,10,12,35,24.30
2018,08,10,12,36,24.20
2018,08,10,12,37,24.30
2018,08,10,12,38,24.40
2018,08,10,12,39,24.30
2018,08,10,12,40,24.30
2018,08,10,12,41,24.30
2018,08,10,12,42,24.40
2018,08,10,12,43,24.50
2018,08,10,12,44,24.60
2018,08,10,12,45,24.70
2018,08,10,12,46,24.80
2018,08,10,12,47,24.80
2018,08,10,12,48,24.80
2018,08,10,12,49,24.70
2018,08,10,12,50,24.70
2018,08,10,12,51,24.80
2018,08,10,12,52,24.90
2018,08,10,12,53,24.90
2018,08,10,12,54,24.90
2018,08,10,12,55,24.90
2018,08,10,12,56,25.00
2018,08,10,12,57,25.10
2018,08,10,12,58,25.10
2018,08,10,12,59,25.10
2018,08,10,13,00,25.10
2018,08,10,13,01,25.10
2018,08,10,13,02,25.10
2018,08,10,13,03,25.00
2018,08,10,13,04,25.00
2018,08,10,13,05,25.10
2018,08,10,13,06,25.30
2018,08,10,13,07,25.40
2018,08,10,13,08,25.50
2018,08,10,13,09,25.50
2018,08,10,13,10,25.40
2018,08,10,13,11,25.50
2018,08,10,13,12,25.60
2018,08,10,13,13,25.80
2018,08,10,13,14,25.90
2018,08,10,13,15,26.10
2018,08,10,13,16,26.20
2018,08,10,13,17,26.30
2018,08,10,13,18,26.00
2018,08,10,13,19,25.80
2018,08,10,13,20,25.70
2018,08,10,13,21,25.70
2018,08,10,13,22,25.70
2018,08,10,13,23,25.70
2018,08,10,13,24,25.70
2018,08,10,13,25,25.70
2018,08,10,13,26,25.80
2018,08,10,13,27,25.70
2018,08,10,13,28,25.70
2018,08,10,13,29,25.60
2018,08,10,13,30,25.50
2018,08,10,13,31,25.60
2018,08,10,13,32,25.80
2018,08,10,13,33,26.00
2018,08,10,13,34,26.10
2018,08,10,13,35,26.20
2018,08,10,13,36,26.20
2018,08,10,13,37,26.30
2018,08,10,13,38,26.30
2018,08,10,13,39,26.20
2018,08,10,13,40,26.10
2018,08,10,13,41,26.00
2018,08,10,13,42,25.90
2018,08,10,13,43,25.90
2018,08,10,13,44,25.80
2018,08,10,13,45,25.80
2018,08,10,13,46,25.90
2018,08,10,13,47,26.00
2018,08,10,13,48,26.00
2018,08,10,13,49,26.20
2018,08,10,13,50,26.30
2018,08,10,13,51,26.50
2018,08,10,13,52,26.80
2018,08,10,13,53,27.10
2018,08,10,13,54,27.30
2018,08,10,13,55,27.50
2018,08,10,13,56,27.80
2018,08,10,13,57,28.00
2018,08,10,13,58,28.10
2018,08,10,13,59,28.10
2018,08,10,14,00,28.20
2018,08,10,14,01,28.20
2018,08,10,14,02,28.30
2018,08,10,14,03,28.40
2018,08,10,14,04,28.50
2018,08,10,14,05,28.50
2018,08,10,14,06,28.50
2018,08,10,14,07,28.60
2018,08,10,14,08,28.70
2018,08,10,14,09,28.80
2018,08,10,14,10,28.90
2018,08,10,14,11,28.80
2018,08,10,14,12,28.60
2018,08,10,14,13,28.40
2018,08,10,14,14,28.40
2018,08,10,14,15,28.40
2018,08,10,14,16,28.50
2018,08,10,14,17,28.60
2018,08,10,14,18,28.70
2018,08,10,14,19,28.70
2018,08,10,14,20,28.70
2018,08,10,14,21,28.60
2018,08,10,14,22,28.70
2018,08,10,14,23,28.80
2018,08,10,14,24,29.00
2018,08,10,14,25,29.10
2018,08,10,14,26,29.20
2018,08,10,14,27,29.20
2018,08,10,14,28,29.20
2018,08,10,14,29,29.10
2018,08,10,14,30,29.00
2018,08,10,14,31,29.00
2018,08,10,14,32,28.90
2018,08,10,14,33,28.80
2018,08,10,14,34,28.70
2018,08,10,14,35,28.60
2018,08,10,14,36,28.50
2018,08,10,14,37,28.60
2018,08,10,14,38,28.50
2018,08,10,14,39,28.60
2018,08,10,14,40,28.60
2018,08,10,14,41,28.60
2018,08,10,14,42,28.60
2018,08,10,14,43,28.50
2018,08,10,14,44,28.50
2018,08,10,14,45,28.50
2018,08,10,14,46,28.50
2018,08,10,14,47,28.40
2018,08,10,14,48,28.40
2018,08,10,14,49,28.50
2018,08,10,14,50,28.50
2018,08,10,14,51,28.60
2018,08,10,14,52,28.70
2018,08,10,14,53,28.80
2018,08,10,14,54,28.80
2018,08,10,14,55,28.90
2018,08,10,14,56,28.90
2018,08,10,14,57,28.90
2018,08,10,14,58,28.80
2018,08,10,14,59,29.00
2018,08,10,15,00,28.90
2018,08,10,15,01,29.00
2018,08,10,15,02,29.00
2018,08,10,15,03,29.10
2018,08,10,15,04,29.20
2018,08,10,15,05,29.20
2018,08,10,15,06,29.20
2018,08,10,15,07,29.10
2018,08,10,15,08,29.10
2018,08,10,15,09,29.20
2018,08,10,15,10,29.20
2018,08,10,15,11,29.20
2018,08,10,15,12,29.20
2018,08,10,15,13,29.30
2018,08,10,15,14,29.30
2018,08,10,15,15,29.00
2018,08,10,15,16,28.90
2018,08,10,15,17,28.90
2018,08,10,15,18,28.90
2018,08,10,15,19,28.90
2018,08,10,15,20,28.90
2018,08,10,15,21,29.00
2018,08,10,15,22,29.00
2018,08,10,15,23,28.80
2018,08,10,15,24,28.80
2018,08,10,15,25,28.70
2018,08,10,15,26,28.70
2018,08,10,15,27,28.70
2018,08,10,15,28,28.70
2018,08,10,15,29,28.70
2018,08,10,15,30,28.70
2018,08,10,15,31,28.70
2018,08,10,15,32,28.80
2018,08,10,15,33,28.90
2018,08,10,15,34,28.70
2018,08,10,15,35,28.70
2018,08,10,15,36,28.60
2018,08,10,15,37,28.60
2018,08,10,15,38,28.60
2018,08,10,15,39,28.70
2018,08,10,15,40,28.60
2018,08,10,15,41,28.50
2018,08,10,15,42,28.40
2018,08,10,15,43,28.30
2018,08,10,15,44,28.30
2018,08,10,15,45,28.40
2018,08,10,15,46,28.60
2018,08,10,15,47,28.60
2018,08,10,15,48,28.70
2018,08,10,15,49,28.60
2018,08,10,15,50,28.50
2018,08,10,15,51,28.40
2018,08,10,15,52,28.30
2018,08,10,15,53,28.00
2018,08,10,15,54,27.90
2018,08,10,15,55,27.80
2018,08,10,15,56,27.80
2018,08,10,15,57,27.80
2018,08,10,15,58,27.90
2018,08,10,15,59,27.90
2018,08,10,16,00,28.00
2018,08,10,16,01,28.00
2018,08,10,16,02,28.00
2018,08,10,16,03,27.90
2018,08,10,16,04,27.80
2018,08,10,16,05,27.80
2018,08,10,16,06,27.70
2018,08,10,16,07,27.70
2018,08,10,16,08,27.80
2018,08,10,16,09,27.80
2018,08,10,16,10,27.80
2018,08,10,16,11,27.80
2018,08,10,16,12,27.90
2018,08,10,16,13,27.90
2018,08,10,16,14,27.90
2018,08,10,16,15,27.90
2018,08,10,16,16,27.90
2018,08,10,16,17,27.80
2018,08,10,16,18,27.80
2018,08,10,16,19,27.70
2018,08,10,16,20,27.70
2018,08,10,16,21,27.50
2018,08,10,16,22,27.40
2018,08,10,16,23,27.40
2018,08,10,16,24,27.30
2018,08,10,16,25,27.30
2018,08,10,16,26,27.10
2018,08,10,16,27,27.00
2018,08,10,16,28,26.90
2018,08,10,16,29,26.80
2018,08,10,16,30,26.80
2018,08,10,16,31,26.90
2018,08,10,16,32,26.80
2018,08,10,16,33,26.80
2018,08,10,16,34,26.80
2018,08,10,16,35,26.80
2018,08,10,16,36,26.80
2018,08,10,16,37,26.80
2018,08,10,16,38,26.70
2018,08,10,16,39,26.60
2018,08,10,16,40,26.50
2018,08,10,16,41,26.40
2018,08,10,16,42,26.50
2018,08,10,16,43,26.50
2018,08,10,16,44,26.40
2018,08,10,16,45,26.50
2018,08,10,16,46,26.50
2018,08,10,16,47,26.50
2018,08,10,16,48,26.50
2018,08,10,16,49,26.50
2018,08,10,16,50,26.40
2018,08,10,16,51,26.40
2018,08,10,16,52,26.40
2018,08,10,16,53,26.50
2018,08,10,16,54,26.60
2018,08,10,16,55,26.60
2018,08,10,16,56,26.60
2018,08,10,16,57,26.50
2018,08,10,16,58,26.40
2018,08,10,16,59,26.30
2018,08,10,17,00,26.20
2018,08,10,17,01,26.10
2018,08,10,17,02,26.10
2018,08,10,17,03,26.10
2018,08,10,17,04,26.10
2018,08,10,17,05,26.10
2018,08,10,17,06,26.00
2018,08,10,17,07,26.00
2018,08,10,17,08,25.90
2018,08,10,17,09,25.90
2018,08,10,17,10,25.90
2018,08,10,17,11,25.90
2018,08,10,17,12,25.90
2018,08,10,17,13,26.00
2018,08,10,17,14,26.00
2018,08,10,17,15,26.10
2018,08,10,17,16,26.10
2018,08,10,17,17,26.20
2018,08,10,17,18,26.20
2018,08,10,17,19,26.20